Location: Pl�tzky
(52.0521°N, 11.8020°E)
Time: 18:01:38
(UTC+00:00)

GEOS 3 Rocket - Pass Details

Date: 22 November 2019
Orbit: 786 x 833 km, 115.0° (Epoch: 07 December)

Event Time Altitude Azimuth Distance (km) Brightness Sun altitude
Exits shadow 18:17:44 85° 218° (SW) 827 3.5 -27.8°
Drops below altitude 10° 18:22:51 10° 226° (SW) 2,420 6.6 -28.6°
Sets 18:25:10 0° 226° (SW) 3,355 7.4 -29.0°
